NSS-11

Last updated on Thu Oct 30 2025 00:02:47 GMT+0000 (Coordinated Universal Time)

1 26554U 00059A 25302.54211330 .00000036 00000+0 00000+0 0 9994 2 26554 1.5249 84.1282 0002918 126.5354 198.6550 1.00272856 38978
UTC large
Height (km)
Speed (km/s)
/
Latitude / Longitude
Inclination (degrees)
Orbital Period (minutes)
Azimuth
Elevation
Range (km)
Doppler Factor

Next 0 passes for location: London (51.5072 / 0.1276)

Sorry there are no passes over London.